Weather History for Meknes, Morocco

Change the Weather History Date:

Saturday, November 2, 2013

  Actual Average Record
Temperature  
Mean Temperature 64 °F -  
Max Temperature 82 °F - - ()
Min Temperature 46 °F - - ()
Degree Days  
Heating Degree Days 1    
Growing Degree Days 14 (Base 50)    
Moisture  
Dew Point 28 °F    
Average Humidity 25    
Maximum Humidity 53    
Minimum Humidity 5    
Precipitation  
Precipitation 0.00 in - - ()
Sea Level Pressure  
Sea Level Pressure 30.11 in    
Wind  
Wind Speed 4 mph ()    
Max Wind Speed 8 mph    
Max Gust Speed -    
Visibility 6.0 miles    
Events      
T = Trace of Precipitation, MM = Missing Value Source: Averaged Metar Reports

Daily Weather History Graph

Daily Weather History Graph

Search for Another Location

Airport:

Trip Planner

Search our weather history database for the weather conditions in past years. The results will help you decide how hot, cold, wet, or windy it might be!

Date:

Astronomy

Nov. 02, 2013 Rise Set
Actual Time 6:42 AM WET 5:28 PM WET
Civil Twilight 6:16 AM WET 5:54 PM WET
Nautical Twilight 5:46 AM WET 6:23 PM WET
Astronomical Twilight 5:17 AM WET 6:53 PM WET
Moon 5:26 AM WET (11/2) 4:49 PM WET (11/2)
Length of Visible Light 11h 37m
Length of Day
10h 46m
Waning Crescent, 1% of the Moon is Illuminated
Nov 2
Waning Crescent
Nov 3
New
Nov 10
First Quarter
Nov 17
Full
Nov 25
Last Quarter

Hourly Weather History & Observations

Time (WET) Temp. Windchill Dew Point Humidity Pressure Visibility Wind Dir Wind Speed Gust Speed Precip Events Conditions
12:00 AM 47 °F - 30 °F 40% 30.17 in 6 mi ESE 4.6 mph - -  
12:00 AM 46.4 °F 44.3 °F 30.2 °F 53% 30.15 in - ESE 4.6 mph - N/A   Clear
1:00 AM 48.2 °F - 30.2 °F 50% 30.12 in - SE 5.8 mph - N/A   Clear
2:00 AM 53.6 °F - 26.6 °F 35% 30.12 in - ESE 5.8 mph - N/A   Clear
3:00 AM 54 °F - 26 °F 22% 30.10 in 6 mi ESE 5.8 mph - -  
3:00 AM 53.6 °F - 26.6 °F 35% 30.09 in - ESE 5.8 mph - N/A   Clear
4:00 AM 50.0 °F - 26.6 °F 40% 30.09 in - ESE 6.9 mph - N/A   Clear
5:00 AM 53.6 °F - 24.8 °F 33% 30.09 in - ESE 5.8 mph - N/A   Clear
6:00 AM 50 °F - 26 °F 26% 30.12 in 6 mi Calm Calm - -  
6:00 AM 50.0 °F - 26.6 °F 40% 30.09 in - Calm Calm - N/A   Clear
7:00 AM 59.0 °F - 24.8 °F 27% 30.09 in - South 8.1 mph - N/A   Clear
8:00 AM 60.8 °F - 26.6 °F 27% 30.12 in - South 6.9 mph - N/A   Clear
9:00 AM 67 °F - 28 °F 13% 30.08 in 6 mi South 4.6 mph - -  
9:00 AM 68.0 °F - 28.4 °F 23% 30.12 in - South 4.6 mph - N/A   Clear
10:00 AM 73.4 °F - 26.6 °F 18% 30.12 in - South 4.6 mph - N/A   Clear
11:00 AM 80.6 °F - 23.0 °F 12% 30.12 in - West 3.5 mph - N/A   Clear
12:00 PM 81 °F - 27 °F 7% 30.02 in 6 mi NW 6.9 mph - -  
12:00 PM 80.6 °F - 26.6 °F 14% 30.42 in - NW 6.9 mph - N/A   Clear
1:00 PM 80.6 °F - 26.6 °F 14% 30.09 in - NNW 6.9 mph - N/A   Clear
2:00 PM 82.4 °F - 26.6 °F 13% 30.09 in - NW 6.9 mph - N/A   Clear
3:00 PM 82 °F - 24 °F 5% 29.97 in 6 mi WNW 8.1 mph - -  
3:00 PM 82.4 °F - 24.8 °F 12% 30.06 in - WNW 8.1 mph - N/A   Clear
4:00 PM - - - N/A% 30.06 in - NW 6.9 mph - N/A   Unknown
5:00 PM 75.2 °F - 28.4 °F 18% 30.09 in - NW 6.9 mph - N/A   Clear
6:00 PM 70 °F - 29 °F 12% 30.04 in 6 mi WNW 4.6 mph - -  
6:00 PM 69.8 °F - 30.2 °F 23% 30.09 in - WNW 4.6 mph - N/A   Clear
7:00 PM 66.2 °F - 28.4 °F 24% 30.12 in - SW 2.3 mph - N/A   Clear
8:00 PM 60.8 °F - 30.2 °F 31% 30.12 in - Calm Calm - N/A   Clear
9:00 PM 61 °F - 31 °F 21% 30.09 in 6 mi Calm Calm - -  
9:00 PM 60.8 °F - 30.2 °F 31% 30.12 in - Calm Calm - N/A   Clear
10:00 PM 60.8 °F - 28.4 °F 29% 30.12 in - SSE 5.8 mph - N/A   Clear
11:00 PM 60.8 °F - 30.2 °F 31% 30.12 in - SSE 4.6 mph - N/A   Clear